Location: São Paulo
(23.5507°S, 46.6334°W)
Time: 13:48:18
(UTC-03:00)

Tiros 1 - Pass Details

Date: 15 February 2026
Orbit: 618 x 649 km, 48.4° (Epoch: 11 March)

Event Time Altitude Azimuth Distance (km) Brightness Sun altitude
Rises 03:52:39 0° 210° (SSW) 2,982 10.6 -26.8°
Reaches altitude 10° 03:55:26 10° 195° (SSW) 2,065 9.9 -26.2°
Maximum altitude 03:59:13 23° 143° (SE) 1,382 9.5 -25.5°
Drops below altitude 10° 04:02:58 10° 90° (E) 2,044 10.5 -24.7°
Sets 04:05:42 0° 75° (ENE) 2,944 11.2 -24.2°
